Location: Unspecified
(0.0000°N, 0.0000°E)
Time: 06:05:34
(UTC+00:00)

N. Korean satellite - Pass Details

Date: 19 June 2019
Orbit: 455 x 508 km, 97.2° (Epoch: 15 September)

Event Time Altitude Azimuth Distance (km) Brightness Sun altitude
Rises 05:12:29 0° 28° (NNE) 2,495 11.1 -11.2°
Reaches altitude 10° 05:14:41 10° 40° (NE) 1,632 10.3 -10.7°
Maximum altitude 05:17:45 29° 101° (E) 913 8.6 -10.0°
Drops below altitude 10° 05:20:53 10° 162° (SSE) 1,667 9.2 -9.3°
Sets 05:23:09 0° 174° (S) 2,560 10.1 -8.7°
